Smithfield, NC

6:37 PM EDT on April 24, 2017 (GMT -0400)
Johnston County

Weather History for KJNX - April, 2014

Change the Weather History Date:

Thursday, April 10, 2014

  Actual Average Record
Temperature  
Mean Temperature 56 °F -  
Max Temperature 75 °F 70 °F 89 °F (2001)
Min Temperature 37 °F 43 °F 25 °F (1985)
Degree Days  
Heating Degree Days 9    
Growing Degree Days 6 (Base 50)    
Moisture  
Dew Point 39 °F    
Average Humidity 60    
Maximum Humidity 100    
Minimum Humidity 22    
Precipitation  
Precipitation 0.00 in - - ()
Sea Level Pressure  
Sea Level Pressure 30.19 in    
Wind  
Wind Speed 2 mph (SSW)    
Max Wind Speed 13 mph    
Max Gust Speed 23 mph    
Visibility 9 miles    
Events      
Averages and records for this station are not official NWS values.
T = Trace of Precipitation, MM = Missing Value Source: NWS Daily Summary

Daily Weather History Graph

Daily Weather History Graph

Search for Another Location

Airport or City:

Trip Planner

Search our weather history database for the weather conditions in past years. The results will help you decide how hot, cold, wet, or windy it might be!

Date:

Astronomy

Apr. 10, 2014 Rise Set
Actual Time 6:47 AM EDT 7:42 PM EDT
Civil Twilight 6:21 AM EDT 8:08 PM EDT
Nautical Twilight 5:50 AM EDT 8:39 PM EDT
Astronomical Twilight 5:19 AM EDT 9:11 PM EDT
Moon 3:33 PM EDT (4/10) 4:00 AM EDT (4/10)
Length of Visible Light 13h 46m
Length of Day
12h 54m
Waxing Gibbous, 79% of the Moon is Illuminated
Apr 10
Waxing Gibbous
Apr 15
Full
Apr 22
Last Quarter
Apr 29
New
May 6
First Quarter

Hourly Weather History & Observations

Time (EDT) Temp. Dew Point Humidity Pressure Visibility Wind Dir Wind Speed Gust Speed Precip Events Conditions
12:15 AM 44.6 °F 42.8 °F 93% 30.11 in 10.0 mi Calm Calm - N/A   Clear
12:35 AM 44.6 °F 42.8 °F 93% 30.12 in 10.0 mi Calm Calm - N/A   Clear
12:55 AM 44.6 °F 42.8 °F 93% 30.12 in 10.0 mi Calm Calm - N/A   Clear
1:15 AM 42.8 °F 42.8 °F 100% 30.12 in 10.0 mi Calm Calm - N/A   Clear
1:35 AM 42.8 °F 42.8 °F 100% 30.13 in 7.0 mi Calm Calm - N/A   Clear
1:55 AM 42.8 °F 42.8 °F 100% 30.13 in 7.0 mi Calm Calm - N/A   Clear
2:15 AM 42.8 °F 42.8 °F 100% 30.13 in 7.0 mi Calm Calm - N/A   Clear
2:35 AM 42.8 °F 41.0 °F 93% 30.13 in 7.0 mi Calm Calm - N/A   Clear
2:55 AM 42.8 °F 41.0 °F 93% 30.13 in 5.0 mi Calm Calm - N/A   Clear
3:15 AM 41.0 °F 41.0 °F 100% 30.13 in 7.0 mi Calm Calm - N/A   Clear
3:35 AM 41.0 °F 41.0 °F 100% 30.14 in 4.0 mi Calm Calm - N/A   Clear
3:55 AM 41.0 °F 41.0 °F 100% 30.15 in 5.0 mi Calm Calm - N/A   Clear
4:15 AM 41.0 °F 41.0 °F 100% 30.15 in 7.0 mi Calm Calm - N/A   Clear
4:35 AM 41.0 °F 39.2 °F 93% 30.15 in 3.0 mi Calm Calm - N/A   Clear
4:55 AM 41.0 °F 39.2 °F 93% 30.16 in 7.0 mi Calm Calm - N/A   Clear
5:15 AM 41.0 °F 39.2 °F 93% 30.17 in 1.5 mi Calm Calm - N/A   Scattered Clouds
5:35 AM 41.0 °F 39.2 °F 93% 30.18 in 2.5 mi Calm Calm - N/A   Scattered Clouds
5:55 AM 39.2 °F 39.2 °F 100% 30.18 in 5.0 mi Calm Calm - N/A   Clear
6:15 AM 39.2 °F 37.4 °F 93% 30.20 in 5.0 mi Calm Calm - N/A   Scattered Clouds
6:35 AM 37.4 °F 37.4 °F 100% 30.21 in 4.0 mi Calm Calm - N/A   Clear
6:55 AM 39.2 °F 37.4 °F 93% 30.21 in 7.0 mi Calm Calm - N/A   Clear
7:15 AM 39.2 °F 37.4 °F 93% 30.23 in 5.0 mi Calm Calm - N/A   Clear
7:35 AM 39.2 °F 39.2 °F 100% 30.24 in 10.0 mi Calm Calm - N/A   Clear
7:55 AM 41.0 °F 41.0 °F 100% 30.25 in 10.0 mi Calm Calm - N/A   Clear
8:15 AM 44.6 °F 42.8 °F 93% 30.26 in 10.0 mi Calm Calm - N/A   Clear
8:35 AM 46.4 °F 44.6 °F 93% 30.26 in 10.0 mi Calm Calm - N/A   Clear
8:55 AM 51.8 °F 46.4 °F 82% 30.26 in 10.0 mi Calm Calm - N/A   Clear
9:15 AM 53.6 °F 46.4 °F 77% 30.26 in 10.0 mi Calm Calm - N/A   Clear
9:35 AM 57.2 °F 46.4 °F 67% 30.27 in 10.0 mi Calm Calm - N/A   Clear
9:55 AM 60.8 °F 42.8 °F 52% 30.28 in 10.0 mi Calm Calm - N/A   Clear
10:15 AM 62.6 °F 37.4 °F 39% 30.28 in 10.0 mi SSE 3.5 mph - N/A   Clear
10:35 AM 64.4 °F 35.6 °F 34% 30.28 in 10.0 mi SE 4.6 mph - N/A   Scattered Clouds
10:55 AM 64.4 °F 35.6 °F 34% 30.28 in 10.0 mi SSW 5.8 mph - N/A   Scattered Clouds
11:15 AM 68.0 °F 35.6 °F 30% 30.28 in 10.0 mi Calm Calm - N/A   Clear
11:35 AM 68.0 °F 35.6 °F 30% 30.27 in 10.0 mi SSW 4.6 mph - N/A   Clear
11:55 AM 68.0 °F 33.8 °F 28% 30.26 in 10.0 mi SSW 6.9 mph - N/A   Clear
12:15 PM 68.0 °F 35.6 °F 30% 30.25 in 10.0 mi South 8.1 mph - N/A   Clear
12:35 PM 69.8 °F 33.8 °F 27% 30.25 in 10.0 mi South 11.5 mph 16.1 mph N/A   Clear
12:55 PM 69.8 °F 33.8 °F 27% 30.24 in 10.0 mi SSW 6.9 mph - N/A   Clear
1:15 PM 71.6 °F 33.8 °F 25% 30.23 in 10.0 mi SSW 3.5 mph - N/A   Clear
1:35 PM 71.6 °F 33.8 °F 25% 30.22 in 10.0 mi SW 5.8 mph - N/A   Clear
1:55 PM 71.6 °F 33.8 °F 25% 30.21 in 10.0 mi South 12.7 mph - N/A   Clear
2:15 PM 73.4 °F 33.8 °F 23% 30.22 in 10.0 mi SSW 5.8 mph - N/A   Clear
2:35 PM 73.4 °F 35.6 °F 25% 30.21 in 10.0 mi SW 8.1 mph - N/A   Clear
3:15 PM 73.4 °F 35.6 °F 25% 30.18 in 10.0 mi South 10.4 mph 23.0 mph N/A   Clear
3:55 PM 73.4 °F 35.6 °F 25% 30.17 in 10.0 mi SSW 9.2 mph - N/A   Clear
4:15 PM 75.2 °F 33.8 °F 22% 30.16 in 10.0 mi WSW 9.2 mph - N/A   Clear
4:35 PM 75.2 °F 33.8 °F 22% 30.16 in 10.0 mi SSW 6.9 mph 16.1 mph N/A   Clear
4:55 PM 75.2 °F 35.6 °F 24% 30.15 in 10.0 mi SSW 9.2 mph - N/A   Clear
5:15 PM 75.2 °F 35.6 °F 24% 30.15 in 10.0 mi SSW 10.4 mph 17.3 mph N/A   Clear
5:35 PM 75.2 °F 35.6 °F 24% 30.15 in 10.0 mi SW 9.2 mph - N/A   Clear
5:55 PM 75.2 °F 35.6 °F 24% 30.15 in 10.0 mi SW 6.9 mph - N/A   Clear
6:15 PM 73.4 °F 37.4 °F 27% 30.15 in 10.0 mi SW 9.2 mph - N/A   Clear
6:35 PM 73.4 °F 37.4 °F 27% 30.15 in 10.0 mi SSW 5.8 mph - N/A   Clear
6:55 PM 71.6 °F 37.4 °F 29% 30.15 in 10.0 mi SSW 6.9 mph - N/A   Clear
7:15 PM 71.6 °F 37.4 °F 29% 30.15 in 10.0 mi SSW 4.6 mph - N/A   Clear
7:35 PM 69.8 °F 37.4 °F 31% 30.15 in 10.0 mi SSW 3.5 mph - N/A   Clear
7:55 PM 64.4 °F 41.0 °F 42% 30.16 in 10.0 mi Calm Calm - N/A   Clear
8:15 PM 62.6 °F 42.8 °F 48% 30.16 in 10.0 mi Calm Calm - N/A   Clear
8:35 PM 60.8 °F 44.6 °F 55% 30.17 in 10.0 mi Calm Calm - N/A   Clear
8:55 PM 60.8 °F 42.8 °F 52% 30.18 in 10.0 mi South 5.8 mph - N/A   Clear
9:15 PM 60.8 °F 42.8 °F 52% 30.19 in 10.0 mi South 5.8 mph - N/A   Clear
9:35 PM 62.6 °F 42.8 °F 48% 30.20 in 10.0 mi South 6.9 mph - N/A   Clear
9:55 PM 62.6 °F 44.6 °F 52% 30.20 in 10.0 mi South 8.1 mph - N/A   Clear
10:15 PM 62.6 °F 42.8 °F 48% 30.20 in 10.0 mi South 9.2 mph - N/A   Clear
10:35 PM 62.6 °F 42.8 °F 48% 30.20 in 10.0 mi South 9.2 mph - N/A   Clear
10:55 PM 60.8 °F 42.8 °F 52% 30.20 in 10.0 mi South 6.9 mph - N/A   Clear
11:15 PM 60.8 °F 44.6 °F 55% 30.20 in 10.0 mi South 9.2 mph - N/A   Clear
11:35 PM 60.8 °F 42.8 °F 52% 30.20 in 10.0 mi South 9.2 mph - N/A   Clear
11:55 PM 60.8 °F 42.8 °F 52% 30.20 in 10.0 mi South 6.9 mph - N/A   Clear